www.pogodaiklimat.ru

Погода и климат >> Архив погоды >> Россия >> Адыгея >> Майкоп


ПОГОДА в Майкопе

АРХИВ ПОГОДЫ в Майкопе

Время (UTC), дата Ветер
(напр.,м/с)
 
Видим.   Явления Облачность Т
(С)
Тd
(С)
f
(%)
Тe
(С)
Тes
(С)
Комфортность P
(гПа)
Po
(гПа)
Тmin
(С)
Tmax
(С)
R
(мм)
R24
(мм)
S
(см)
09 18.05 СВ 2 20 км 8/1 1000 м
[Sc Ac As Ci sp]
+28.5 +16.9 49 +32 +42 душно 1005.9 981.5
12 18.05 СВ 4 20 км 4/1 1000 м
[Sc Ac As Ci sp]
+29.4 +14.1 39 +31 +38 жарко 1005.3 980.9
15 18.05 В 5 20 км 3/1 1000 м
[Sc Ci sp]
+27.9 +12.3 38 +29 +30 жарко 1004.6 980.1 +29.9
18 18.05 В 1 20 км 3/0
[Ci sp]
+21.7 +13.6 60 +24 +24 комфорт 1005.6 980.6
21 18.05 В 2 20 км 4/0
[Ci sp]
+18.9 +13.5 71 +20 +20 тепло 1005.4 980.1
00 19.05 С 1 20 км 8/0
[Ac As Ci sp]
+15.7 +13.3 86 +16 +16 тепло 1004.8 979.3
03 19.05 Ю 1 20 км 9/5 1000 м
[Sc Ac As Ci sp]
+16.6 +14.4 87 +17 +18 тепло 1006.3 980.9 +14.9
06 19.05 З 2 20 км в посл. час ливневой дождь 9/6 1000 м
[Cb cap Ac trans Ci sp]
+19.0 +15.3 79 +21 +23 комфорт 1008.1 982.9
09 19.05 СЗ 2 20 км 8/3 1000 м
[Sc Ac trans Ci sp]
+24.1 +15.7 59 +27 +35 жарко 1009.2 984.4
12 19.05 З 2 20 км в посл. час гроза {ливн. осадки} 10/8 1000 м
[Cb cap Ac As]
+21.5 +17.3 77 +26 +26 душно 1011.0 985.9
15 19.05 Ю 1 10 км слаб. ливневой дождь, в посл. час гроза 10/8 600 м
[Cb cap Ac As]
+19.3 +18.5 95 +23 +23 комфорт 1012.5 987.2 +24.6 2
18 19.05 ЮЗ 1 10 км {гроза, ливн. осадки} 10/4 1000 м
[Sc Ac As]
+18.0 +17.8 99 +19 +19 тепло 1012.5 987.1
21 19.05 штиль 0 10 км 9/3 1000 м
[Sc Ac trans Ci sp]
+16.5 +16.2 98 +16 +16 тепло 1012.9 987.3
00 20.05 ЮЗ 1 10 км 10/3 1000 м
[Sc Ac trans Ci sp]
+16.3 +16.1 99 +17 +17 тепло 1013.7 988.1
03 20.05 Ю 1 10 км 10/4 1000 м
[Sc Ac As]
+16.5 +16.2 98 +17 +17 тепло 1014.3 988.7 +16.2 0.4
06 20.05 З 1 20 км гроза без осадков 10/6 600 м
[Cb cap Ac As]
+18.1 +15.5 85 +19 +21 тепло 1015.6 990.1
09 20.05 СЗ 2 10 км гроза, ливневой дождь 10/8 600 м
[Cb cap Ac As]
+17.6 +16.0 90 +18 +19 по сезону 1017.3 991.7
12 20.05 В 3 10 км слаб. ливневой дождь {гроза} 10/8 600 м
[Cb cap Ac As]
+16.9 +15.4 91 +17 +17 прохладно 1017.4 991.8
15 20.05 Ю 1 20 км {ливн. осадки} 3/1 1000 м
[Sc Ci sp]
+19.8 +14.7 72 +23 +25 комфорт 1016.2 990.8 +19.8 9
18 20.05 В 1 10 км {ливн. осадки} 1/1 1000 м
[Sc]
+14.3 +14.0 98 +15 +15 по сезону 1017.1 991.2
21 20.05 ЮВ 1 10 км ясно +13.6 +13.3 98 +14 +14 по сезону 1017.4 991.4
00 21.05 ЮВ 1 10 км ясно +13.0 +12.4 96 +13 +13 по сезону 1016.8 990.8
03 21.05 Ю 1 10 км ясно +13.1 +12.7 97 +13 +14 по сезону 1017.1 991.1 +10.2
06 21.05 ЮВ 1 20 км ясно +20.9 +13.8 64 +25 +37 комфорт 1017.0 991.7
09 21.05 СВ 4 20 км 1/1 1000 м
[Cu hum]
+25.1 +12.9 47 +27 +38 жарко 1016.5 991.6
12 21.05 В 3 20 км 8/1 1000 м
[Cu med, cong Ci sp]
+26.1 +13.3 45 +28 +36 жарко 1015.6 990.7
15 21.05 В 2 20 км 9/3 1000 м
[Sc Ci sp]
+24.9 +12.6 46 +27 +28 жарко 1015.0 990.1 +26.5
18 21.05 ЮВ 1 20 км 10/4 1000 м
[Sc Ac trans Ci sp]
+19.5 +13.6 69 +22 +22 комфорт 1014.7 989.3
21 21.05 ЮВ 3 20 км 9/0
[Ac trans Ci sp]
+19.0 +13.9 72 +20 +20 тепло 1014.1 988.6
00 22.05 Ю 1 20 км 9/8 1000 м
[Sc Ac trans]
+15.8 +14.1 90 +16 +16 тепло 1014.1 988.4
03 22.05 ЮВ 2 20 км 10/3 1000 м
[Sc Ac trans Ci sp]
+16.2 +14.0 87 +16 +17 тепло 1013.9 988.2 +14.9
06 22.05 З 2 10 км гроза, ливневой дождь 10/6 600 м
[Cb cap Ac und]
+18.0 +16.2 89 +19 +20 тепло 1014.7 989.2
09 22.05 З 1 20 км в посл. час ливневой дождь {гроза} 10/8 600 м
[Cb cap Ac und]
+18.8 +15.3 80 +21 +22 комфорт 1014.6 989.1
12 22.05 СВ 2 20 км гроза без осадков {ливн. осадки} 8/4 600 м
[Cb cap Ac As Ci sp]
+21.5 +15.6 69 +25 +30 комфорт 1013.9 988.7
15 22.05 З 2 20 км {гроза} 3/3 600 м
[Cu med, cong]
+22.6 +12.8 54 +25 +27 комфорт 1013.3 988.2 +23.3 3
18 22.05 штиль 0 20 км {гроза} 1/1 600 м
[Cu med, cong]
+14.4 +12.7 90 +14 +14 по сезону 1014.5 988.7
21 22.05 Ю 2 20 км ясно +14.5 +12.4 87 +14 +14 по сезону 1014.2 988.3
00 23.05 ЮВ 1 20 км 6/0
[Ac As Ci sp]
+13.3 +10.2 81 +13 +13 по сезону 1014.2 988.2
03 23.05 ЮВ 1 20 км 3/0
[Ci sp]
+12.9 +9.2 78 +13 +14 по сезону 1014.2 988.2 +11.5
06 23.05 ЮЗ 2 20 км 3/0
[Ac trans]
+21.4 +11.2 52 +23 +32 комфорт 1012.8 987.6
09 23.05 З 4 20 км 4/3 1000 м
[Cu med, cong Ci sp]
+23.9 +10.5 43 +25 +34 комфорт 1011.8 986.8
12 23.05 ЮЗ 4
{12}
20 км 6/3 1000 м
[Cu med, cong Ac trans]
+23.4 +9.0 40 +25 +29 комфорт 1011.8 986.8
15 23.05 З 3
{12}
20 км 1/0
[Ac trans]
+22.2 +11.1 49 +24 +26 комфорт 1011.5 986.4 +24.3
18 23.05 ЮЗ 1 20 км ясно +14.4 +12.1 86 +15 +15 по сезону 1013.0 987.2
21 23.05 ЮВ 1 20 км ясно +16.5 +10.1 66 +17 +17 тепло 1012.4 986.8
00 24.05 ЮВ 2 20 км 6/4 1000 м
[Sc Ac trans]
+13.7 +8.9 73 +13 +13 по сезону 1012.0 986.2
03 24.05 Ю 2 20 км ясно +13.8 +8.3 69 +13 +14 по сезону 1012.0 986.1 +12.8
06 24.05 ЮВ 1 20 км ясно +22.3 +8.7 42 +24 +36 комфорт 1011.2 986.1
09 24.05 СВ 1 20 км 8/1 1000 м
[Cu hum Ci sp]
+25.2 +10.1 39 +26 +43 жарко 1010.6 985.7
12 24.05 СВ 2 20 км 8/4 1000 м
[Cu hum Ci sp]
+25.5 +10.0 38 +26 +33 жарко 1009.8 984.9
15 24.05 СВ 3 20 км 4/0
[Ci sp]
+24.5 +11.6 44 +26 +28 жарко 1009.0 984.2 +26.4
18 24.05 В 1 20 км 10/0
[Ac trans Ci sp]
+18.1 +12.5 70 +19 +19 тепло 1009.1 983.7
21 24.05 штиль 0 20 км 10/0
[Ac trans Ci sp]
+15.1 +12.5 84 +15 +15 по сезону 1009.2 983.5
00 25.05 Ю 2 20 км 10/0
[Ac trans Ci sp]
+16.7 +12.2 75 +17 +17 тепло 1008.3 982.8
03 25.05 Ю 3 20 км 1/0
[Ci sp]
+16.7 +11.8 73 +16 +17 тепло 1007.1 981.7 +14.9
06 25.05 СВ 1 10 км слаб. ливневой дождь 10/8 600 м
[Cb cap Ac As]
+18.6 +14.8 79 +20 +21 тепло 1007.1 981.8

 

Местоположение метеостанции Майкоп (Адыгея, Россия): широта 44.62 долгота 40.08 высота над уровнем моря 216 м.

В архиве по умолчанию представлена погода в Майкопе за последнюю неделю. Архивные данные за месяц целиком и за предыдущие месяцы, начиная с января 2011 года, Вы можете получить, выбрав интересующий диапазон дат из раскрывающегося списка и нажав кнопку "Ввод!".


*Определитесь, кто Вы:
робот инопланетянин человек

Внимание! Время в таблицах - всемирное. Для получения местного времени необходимо прибавить поправку, которая равна 3 ч.

Смотрите также архив погоды в соседних городах и на ближайших метеорологических станциях:

Погода в Шунтуке (Адыгея, Россия) (17 км)
Погода в Белореченске (Краснодарский край, Россия) (20 км)
Погода в Дондуковской (Адыгея, Россия) (34 км)
Погода в Лабинске (Краснодарский край, Россия) (53 км)
Погода в Даховской (Адыгея, Россия) (53 км)
Погода в Гузерипле (Адыгея, Россия) (69 км)
Погода в Усть-Лабинске (Краснодарский край, Россия) (73 км)
Погода в Горном (Краснодарский край, Россия) (75 км)
Погода в Горячем Ключе (Краснодарский край, Россия) (78 км)
Погода в Псебае (Краснодарский край, Россия) (78 км)

Пояснения к столбцам:

Ветер - указаны скорость ветра в м/с - средняя за 10 мин, порывы в срок и между сроками (в фигурных скобках) и направление, откуда дует ветер: С - северный, СВ - северо-восточный, В - восточный, ЮВ - юго-восточный, Ю - южный, ЮЗ - юго-западный, З - западный, СЗ - северо-западный.
Видимость - горизонтальная дальность видимости в метрах или километрах. При видимости от 1 до 10 км при отсутствии осадков обычно наблюдается дымка, при ухудшении видимости до 1 км и менее - туман. В сухую погоду видимость может ухудшаться дымом, пылью или мглою.
Явления - указаны атмосферные явления, наблюдавшиеся в срок или в последний час перед сроком; фигурными скобками обозначены явления, наблюдавшиеся между сроками (за 1-3 часа до срока); квадратными скобками обозначены град или гололедные отложения с указанием их диаметра в мм.
Облачность - указаны через наклонную черту общая и нижняя облачность в баллах и высота нижней границы облаков в метрах; квадратными скобками обозначены формы облаков: Ci - перистые, Cs - перисто-слоистые, Cc - перисто-кучевые, Ac - высококучевые, As - высокослоистые, Sc - слоисто-кучевые, Ns - слоисто-дождевые, Cu - кучевые, Cb - кучево-дождевые. Подробнее классификацию облаков см. в Атласе облаков (PDF).
T - Температура воздуха - температура, измеренная на высоте 2 м над землей.
Td - Температура точки росы - температура, при понижении до которой содержащийся в воздухе водяной пар достигнет насыщения.
f - Относительная влажность воздуха - влажноcть воздуха, измеренная на высоте 2 м над землей.
Te - Эффективная температура - температура, которую ощущает одетый по сезону человек в тени. Характеристика душности погоды. При расчете учитывается влияние влажности воздуха и скорости ветра на теплоощущения человека.
Tes - Эффективная температура на солнце - температура, которую ощущает человек, с поправкой на солнечный нагрев. Характеристика знойности погоды. Зависит от высоты солнца над горизонтом, облачности и скорости ветра. Ночью, в пасмурную погоду, а также при ветре 12 м/с и более поправка равна нулю.
P - Атмосферное давление - приведенное к уровню моря атмосферное давление.
Po - Атмосферное давление - измеренное на уровне метеостанции атмосферное давление.
Tmin - Минимальная температура - минимум температуры воздуха на высоте 2 м над землей.
Tmax - Максимальная температура - максимум температуры воздуха на высоте 2 м над землей.
R - Количество осадков - Количество выпавших осадков за период времени, мм. При наведении курсора мыши на число - период времени, за который выпало указанное количество осадков.
R24 - Количество осадков - Количество выпавших осадков за 24 часа, мм.
S - Снежный покров - Высота снежного покрова, см. При наведении курсора мыши на число - состояние снежного покрова и степень покрытия местности в баллах.